This is the latest recevied weather packets stored in our database for station/object K6POO-1. If no packets are shown the sender has not sent any weather packets the latest 10 day(s).
| Time | Temp. | Humidity | Pressure | Rain* | Wind** | Luminosity | Snow |
|---|---|---|---|---|---|---|---|
| 1788662437 | 16.67° C | 75% | 1014.1 hPa | 0 mm | - | 1 W/m² | - |
| 1788662133 | 17.22° C | 75% | 1014.2 hPa | 0 mm | - | 3 W/m² | - |
| 1788661828 | 17.22° C | 74% | 1014.2 hPa | 0 mm | - | 5 W/m² | - |
| 1788661523 | 17.22° C | 73% | 1014.1 hPa | 0 mm | - | 9 W/m² | - |
| 1788661219 | 17.22° C | 71% | 1014.4 hPa | 0 mm | - | 12 W/m² | - |
| 1788660914 | 17.22° C | 70% | 1014.4 hPa | 0 mm | - | 17 W/m² | - |
| 1788660608 | 17.22° C | 68% | 1014.3 hPa | 0 mm | - | 21 W/m² | - |
| 1788660307 | 17.22° C | 69% | 1014.3 hPa | 0 mm | - | 23 W/m² | - |
| 1788660007 | 17.78° C | 67% | 1014.5 hPa | 0 mm | - | 26 W/m² | - |
| 1788659701 | 17.78° C | 68% | 1014.2 hPa | 0 mm | - | 36 W/m² | - |
| 1788659400 | 17.78° C | 68% | 1014.2 hPa | 0 mm | - | 46 W/m² | - |
| 1788659095 | 17.78° C | 68% | 1014.2 hPa | 0 mm | - | 50 W/m² | - |
| 1788658791 | 17.78° C | 67% | 1014.2 hPa | 0 mm | - | 56 W/m² | - |
| 1788658487 | 17.78° C | 68% | 1014.5 hPa | 0 mm | - | 63 W/m² | - |
| 1788658182 | 18.33° C | 67% | 1014.3 hPa | 0 mm | - | 64 W/m² | - |
| 1788657877 | 18.89° C | 66% | 1014.4 hPa | 0 mm | - | 84 W/m² | - |
| 1788657576 | 18.89° C | 62% | 1014.4 hPa | 0 mm | - | 83 W/m² | - |
| 1788657272 | 18.89° C | 63% | 1014.3 hPa | 0 mm | - | 86 W/m² | - |
| 1788656967 | 19.44° C | 60% | 1014.3 hPa | 0 mm | - | 93 W/m² | - |
| 1788656662 | 19.44° C | 61% | 1014.4 hPa | 0 mm | - | 105 W/m² | - |
| 1788656358 | 19.44° C | 60% | 1014.3 hPa | 0 mm | - | 102 W/m² | - |
| 1788656058 | 19.44° C | 61% | 1014.2 hPa | 0 mm | - | 137 W/m² | - |
| 1788655756 | 20° C | 60% | 1014.3 hPa | 0 mm | - | 148 W/m² | - |
| 1788655451 | 19.44° C | 63% | 1014.3 hPa | 0 mm | - | 110 W/m² | - |
| 1788655146 | 20° C | 62% | 1014.4 hPa | 0 mm | - | 142 W/m² | - |
* Rain latest hour (hover to see other rain measurements)
** Current wind speed in m/s (hover to see current wind gust speed)